Location: Ferchesar
(52.6477°N, 12.4298°E)
Time: 10:12:52
(UTC+01:00)

Vanguard 3 - Pass Details

Date: 06 December 2021
Orbit: 508 x 3260 km, 33.3° (Epoch: 25 January)

Event Time Altitude Azimuth Distance (km) Brightness Sun altitude
Exits shadow 03:03:07 28° 180° (S) 4,836 10.8 -44.2°
Maximum altitude 03:08:25 31° 157° (SSE) 4,591 10.8 -43.5°
Drops below altitude 10° 03:22:43 10° 104° (ESE) 5,565 11.9 -41.4°
Sets 03:27:11 0° 95° (E) 6,259 12.4 -40.8°
